User: anonymous   Login
Location: Unspecified
(0.0000°N, 0.0000°E)
Time: 15:42:19
(UTC+02:00)
Language:

Ariane H10 - Orbit

View from above orbital plane
View from above orbital plane
View from above satellite
View from above satellite

Ground track
Ground track

The orbit data is extracted from the following two-line orbital elements,

1 19122U 88040B   15145.51080751  .00000088  00000-0  12019-2 0  9999
2 19122 007.2110 115.7940 7144859 260.4744 347.0332 02.33093278179354
Epoch (UTC): 25 May 2015 12:15:33
Eccentricity: 0.7144859
inclination: 7.2110°
perigee height: 482 km
apogee height: 34817 km
right ascension of ascending node: 115.7940°
argument of perigee: 260.4744°
revolutions per day: 2.33093278
mean anomaly at epoch: 347.0332°
orbit number at epoch: 17935

The dashed part of the orbit path shows where the satellite is in the earth's shadow,  

DLR